Flight Information

DEPARTURE
FARMINGTON, NM
Elevation:
5506
Runways:
5/23 - 6501x150 - ASPH-E
7/25 - 6704x100 - ASPH-G
ATIS:
127.15
Ground:
121.7
Tower:
FARMINGTON TOWER 118.9
DESTINATION
,
Elevation:
TPA:
1000 (est.)


6270.9 NM79° True-13° Var66° HDG

Flight Plan:
(click to file on line)

1. Type
2. Aircraft Identification
3. Aircraft Type / Special Equipment
4. True Airspeed
kts
5. Departure Airport
(ICAO code)
6. Arriving Airport
(ICAO code)
7. Cruising Altitude
ft
8. Alternate Airport
(ICAO code)
9. Route of Flight
10. Remarks


00:00:00 Departure ATIS: Destination ATIS:

Clearance Limit:
Route:
Altitude: Expect in minutes
Frequency:
Transponder: (7500 Hijack / 7600 Lost Comms / 7700 Emergency)


KFMN 211553Z 03003KT 10SM CLR 13/M07 A3048 RMK AO2 SLP291 T01331067
Time: 2021-09-21T15:53:00Z
1632242408
Winds: 30 @ 3 kts
Visibility: 10.0 sm
Clouds (AGL): CLR
Temperature: 13.3 C
Dew Point: -6.7 C
Pressure: 30.481298 in Hgbr


Notes:

Data extracted from FAA Digital Chart Supplement. Effective: 0901Z Thursday, AUG 12, 2021 to 0901Z Thursday, OCT 7, 2021
Current ATIS data is provided courtisy of PilotEdge.